Meteo Giornale » Osservazioni meteo Spagna » Melilla
ore: 01:30 - Osservazioni Meteo Melilla
Lat. 35° 17' N Lon. 2° 57' W Alt. 47 metri s.l.m.
26 °C
Nuvoloso
Temp. 24 Ore
26 °C
28 °C
Nord
3.7 Km/h
Dew point 25 °C
Umidità 94 %
Visibilità 10 Km
Il sole sorge alle ore 07:45
Il sole tramonta alle ore 20:37
| Data e Ora | Cielo e Fenomeni | T °C | DP °C | Um. % | Pres. hPa | Vis. km | Vento km/h | |
|---|---|---|---|---|---|---|---|---|
| Oggi h: 01:30 | Nuvoloso | 26 | 25 | 94 | 1019 | 10 | N 3.7 | |
| Oggi h: 01:00 | Poco Nuvoloso | 26 | 24 | 88 | 1019 | 10 | N 5.5 | |
| Oggi h: 00:30 | Poco Nuvoloso | 26 | 25 | 94 | 1019 | 10 | N 5.5 | |
| Oggi h: 00:00 | Poco Nuvoloso | 26 | 25 | 94 | 1019 | 10 | N 0 | |
| Ieri h: 23:30 | Nuvoloso | 26 | 26 | 100 | 1019 | 10 | N 5.5 | |
| Ieri h: 23:00 | Poco Nuvoloso | 26 | 26 | 100 | 1018 | 10 | SE 9.3 | |
| Ieri h: 22:30 | Poco Nuvoloso | 26 | 25 | 94 | 1018 | 10 | N 5.5 | |
| Ieri h: 22:00 | Poco Nuvoloso | 26 | 25 | 94 | 1018 | 10 | E/SE 7.4 | |
| Ieri h: 21:30 | Nuvoloso | 27 | 24 | 83 | 1018 | 10 | N 5.5 | |
| Ieri h: 21:00 | Molto Nuvoloso | 27 | 24 | 83 | 1017 | 10 | N 3.7 | |
| Ieri h: 20:30 | Molto Nuvoloso | 27 | 24 | 83 | 1017 | 10 | N 3.7 | |
| Ieri h: 20:00 | Molto Nuvoloso | 27 | 24 | 83 | 1016 | 10 | NE 7.4 | |
| Ieri h: 19:30 | Molto Nuvoloso | 27 | 25 | 88 | 1017 | 10 | N/NE 7.4 | |
| Ieri h: 19:00 | Molto Nuvoloso | 27 | 24 | 83 | 1017 | 9 | NE 9.3 | |
| Ieri h: 18:30 | Molto Nuvoloso | 27 | 25 | 88 | 1017 | 9 | NE 7.4 | |
| Ieri h: 18:00 | Molto Nuvoloso | 27 | 25 | 88 | 1016 | 9 | E/NE 9.3 | |
| Ieri h: 17:30 | Molto Nuvoloso | 27 | 26 | 94 | 1016 | 8 | E/SE 9.3 | |
| Ieri h: 17:00 | Molto Nuvoloso | 27 | 26 | 94 | 1016 | 8 | E 11.1 | |
| Ieri h: 16:30 | Molto Nuvoloso | 27 | 25 | 88 | 1016 | 9 | E 11.1 | |
| Ieri h: 16:00 | Molto Nuvoloso | 28 | 26 | 88 | 1016 | 9 | E 11.1 | |
| Ieri h: 15:30 | Molto Nuvoloso | 28 | 25 | 83 | 1017 | 9 | E 11.1 | |
| Ieri h: 15:00 | Molto Nuvoloso | 28 | 25 | 83 | 1017 | 9 | E 14.8 | |
| Ieri h: 14:30 | Molto Nuvoloso | 28 | 25 | 83 | 1017 | 8 | E 14.8 | |
| Ieri h: 14:00 | Molto Nuvoloso | 28 | 25 | 83 | 1017 | 6 | E 14.8 | |
| Ieri h: 13:30 | Molto Nuvoloso | 28 | 25 | 83 | 1017 | 7 | E 13 | |
| Ieri h: 13:00 | Molto Nuvoloso | 28 | 25 | 83 | 1017 | 7 | E 13 | |
| Ieri h: 12:30 | Molto Nuvoloso | 27 | 26 | 94 | 1018 | 4 | E 11.1 | |
| Ieri h: 12:00 | Molto Nuvoloso | 27 | 25 | 88 | 1018 | 4 | E/NE 11.1 | |
| Ieri h: 11:30 | Molto Nuvoloso | 27 | 26 | 94 | 1018 | 10 | E 11.1 | |
| Ieri h: 11:00 | Molto Nuvoloso | 27 | 26 | 94 | 1018 | 4 | E 11.1 | |
| Ieri h: 10:30 | Molto Nuvoloso | 26 | 26 | 100 | 1017 | 3 | E/SE 11.1 | |
| Ieri h: 10:00 | Molto Nuvoloso | 26 | 26 | 100 | 1017 | 4 | E/SE 11.1 | |
| Ieri h: 09:30 | Molto Nuvoloso | 26 | 26 | 100 | 1017 | 4 | SE 13 | |
| Ieri h: 09:00 | Molto Nuvoloso | 26 | 25 | 94 | 1017 | 4 | E/SE 13 | |
| Ieri h: 08:30 | Molto Nuvoloso | 26 | 25 | 94 | 1017 | 9 | E 9.3 | |
| Ieri h: 08:00 | Molto Nuvoloso | 26 | 25 | 94 | 1017 | 10 | N 3.7 | |
| Ieri h: 07:30 | Molto Nuvoloso | 26 | 25 | 94 | 1017 | 10 | SE 7.4 | |
| Ieri h: 07:00 | Molto Nuvoloso | 26 | 25 | 94 | 1016 | 10 | N 5.5 | |
| Ieri h: 06:30 | Pioggia | 26 | 25 | 94 | 1016 | 10 | E 11.1 | |
| Ieri h: 06:00 | Coperto | 26 | 25 | 94 | 1016 | 10 | E/SE 9.3 | |
| Ieri h: 05:30 | Coperto | 26 | 25 | 94 | 1016 | 10 | N 5.5 | |
| Ieri h: 05:00 | Coperto | 26 | 25 | 94 | 1016 | 10 | SE 13 | |
| Ieri h: 04:30 | Coperto | 26 | 24 | 88 | 1017 | 10 | S/SE 11.1 | |
| Ieri h: 04:00 | Coperto | 26 | 24 | 88 | 1017 | 10 | E/SE 11.1 | |
| Ieri h: 03:30 | Coperto | 26 | 24 | 88 | 1017 | 10 | SE 11.1 | |
| Ieri h: 03:00 | Coperto | 26 | 24 | 88 | 1017 | 10 | E/SE 9.3 | |
| Ieri h: 02:30 | Coperto | 26 | 24 | 88 | 1018 | 10 | E/SE 7.4 | |
| Ieri h: 02:00 | Coperto | 26 | 24 | 88 | 1018 | 10 | SE 7.4 | |



